GW4592 Weather Reports


time (UTC)temp
C
wind
direction
speed
KPH
gust
KPH
rain 1hr
cm
rain 24hr
cm
rain mn
cm
humidity
%
barometer
mb
20260507161826 19 303 1.6 4.8 0.00 0.00 0.00 65 1017.9
20260507161323 19 309 4.8 8.0 0.00 0.00 0.00 65 1017.8
20260507160820 19 287 1.6 9.7 0.00 0.00 0.00 65 1017.8
20260507160315 20 304 1.6 12.9 0.00 0.00 0.00 65 1017.8
20260507155812 20 317 3.2 11.3 0.00 0.00 0.00 64 1017.9
20260507155308 20 308 4.8 8.0 0.00 0.00 0.00 64 1017.7
20260507154804 20 326 8.0 8.0 0.00 0.00 0.00 64 1017.8
20260507154302 20 300 3.2 8.0 0.00 0.00 0.00 64 1017.9
20260507153758 20 282 4.8 14.5 0.00 0.00 0.00 65 1018.0
20260507153255 20 322 4.8 8.0 0.00 0.00 0.00 65 1017.8
20260507152751 20 324 3.2 9.7 0.00 0.00 0.00 63 1017.9
20260507152248 20 336 6.4 8.0 0.00 0.00 0.00 63 1017.9
20260507151743 20 283 4.8 11.3 0.00 0.00 0.00 65 1017.7
20260507151240 20 324 4.8 16.1 0.00 0.00 0.00 64 1017.9
20260507150737 20 325 3.2 14.5 0.00 0.00 0.00 62 1017.8
20260507150234 20 302 8.0 12.9 0.00 0.00 0.00 62 1018.1
20260507145730 20 309 6.4 9.7 0.00 0.00 0.00 63 1017.9
20260507145226 21 315 6.4 9.7 0.00 0.00 0.00 62 1017.7
20260507144724 21 332 4.8 9.7 0.00 0.00 0.00 62 1017.9
20260507144221 21 341 9.7 9.7 0.00 0.00 0.00 62 1017.8
20260507143718 21 296 0.0 9.7 0.00 0.00 0.00 64 1017.8
20260507143215 21 308 14.5 17.7 0.00 0.00 0.00 63 1017.7
20260507142711 21 302 4.8 12.9 0.00 0.00 0.00 61 1017.9
20260507142208 21 318 6.4 8.0 0.00 0.00 0.00 61 1017.8
20260507141703 21 328 6.4 12.9 0.00 0.00 0.00 61 1017.8
20260507141201 21 323 4.8 9.7 0.00 0.00 0.00 61 1017.7
20260507140657 21 245 3.2 9.7 0.00 0.00 0.00 63 1017.8
20260507140155 21 274 3.2 12.9 0.00 0.00 0.00 62 1017.7
20260507135652 21 344 4.8 14.5 0.00 0.00 0.00 61 1018.0
20260507135149 21 313 8.0 11.3 0.00 0.00 0.00 60 1018.0
20260507134645 21 336 4.8 11.3 0.00 0.00 0.00 61 1017.9
20260507134141 22 301 6.4 16.1 0.00 0.00 0.00 61 1017.7
20260507133637 22 11 4.8 12.9 0.00 0.00 0.00 60 1017.9
20260507133135 22 322 4.8 9.7 0.00 0.00 0.00 62 1018.0
20260507132632 22 339 9.7 14.5 0.00 0.00 0.00 59 1018.0
20260507132128 22 316 3.2 9.7 0.00 0.00 0.00 60 1018.0
20260507131625 22 329 4.8 19.3 0.00 0.00 0.00 59 1018.0
20260507131123 22 316 0.0 8.0 0.00 0.00 0.00 59 1018.1
20260507130619 22 287 3.2 12.9 0.00 0.00 0.00 60 1017.9
20260507130117 22 298 6.4 17.7 0.00 0.00 0.00 56 1017.8
20260507125616 22 329 4.8 16.1 0.00 0.00 0.00 57 1017.9
20260507125113 22 317 3.2 16.1 0.00 0.00 0.00 59 1018.0
20260507124609 22 315 4.8 16.1 0.00 0.00 0.00 57 1017.9
20260507124107 23 311 1.6 11.3 0.00 0.00 0.00 58 1018.0
20260507123605 23 330 1.6 9.7 0.00 0.00 0.00 56 1017.9
20260507123101 23 319 6.4 12.9 0.00 0.00 0.00 57 1017.9
20260507122556 23 278 4.8 9.7 0.00 0.00 0.00 58 1018.0
20260507122053 23 332 8.0 12.9 0.00 0.00 0.00 56 1018.0
20260507121549 23 343 4.8 9.7 0.00 0.00 0.00 57 1018.0
20260507121045 22 332 9.7 9.7 0.00 0.00 0.00 59 1018.2
20260507120541 23 327 4.8 9.7 0.00 0.00 0.00 58 1018.0
20260507120038 23 302 4.8 9.7 0.00 0.00 0.00 58 1017.9
20260507115534 22 303 4.8 20.9 0.00 0.00 0.00 59 1018.0
20260507115030 23 325 4.8 12.9 0.00 0.00 0.00 58 1017.9
20260507114526 22 327 4.8 14.5 0.00 0.00 0.00 60 1018.0
20260507114024 22 330 8.0 14.5 0.00 0.00 0.00 60 1018.0
20260507113521 22 356 3.2 22.5 0.00 0.00 0.00 60 1018.2
20260507113018 23 338 4.8 11.3 0.00 0.00 0.00 58 1018.0
20260507112516 22 100 4.8 19.3 0.00 0.00 0.00 60 1018.1
20260507112012 23 329 8.0 11.3 0.00 0.00 0.00 59 1018.2
20260507111510 23 347 4.8 9.7 0.00 0.00 0.00 58 1018.1
20260507111005 23 302 4.8 9.7 0.00 0.00 0.00 57 1018.5
20260507110502 23 307 6.4 9.7 0.00 0.00 0.00 57 1018.6
20260507105958 23 278 3.2 14.5 0.00 0.00 0.00 59 1018.6
20260507105455 23 348 4.8 8.0 0.00 0.00 0.00 58 1018.5
20260507104952 24 268 6.4 16.1 0.00 0.00 0.00 57 1018.3
20260507104449 23 351 6.4 12.9 0.00 0.00 0.00 60 1018.1
20260507103944 23 327 6.4 12.9 0.00 0.00 0.00 59 1018.2
20260507103442 23 282 3.2 9.7 0.00 0.00 0.00 58 1018.5
20260507102937 23 287 3.2 16.1 0.00 0.00 0.00 58 1018.3
20260507102435 23 21 1.6 16.1 0.00 0.00 0.00 59 1018.6
20260507101931 23 208 3.2 16.1 0.00 0.00 0.00 58 1018.3
20260507101426 23 266 6.4 6.4 0.00 0.00 0.00 58 1018.5
20260507100923 23 237 4.8 12.9 0.00 0.00 0.00 58 1018.6
20260507100420 23 30 1.6 9.7 0.00 0.00 0.00 59 1018.5
20260507095918 23 267 4.8 20.9 0.00 0.00 0.00 58 1018.5
20260507095415 23 340 3.2 14.5 0.00 0.00 0.00 57 1018.7
20260507063007 21 320 3.2 8.0 0.00 0.00 0.00 54 1019.9
20260507062504 21 320 3.2 8.0 0.00 0.00 0.00 54 1019.9
20260507062001 21 339 3.2 9.7 0.00 0.00 0.00 56 1019.9
20260507061459 21 286 3.2 8.0 0.00 0.00 0.00 55 1019.8
20260507060957 21 82 3.2 9.7 0.00 0.00 0.00 55 1019.8
20260507060454 20 306 0.0 6.4 0.00 0.00 0.00 59 1020.0
20260507055950 20 330 3.2 3.2 0.00 0.00 0.00 60 1020.0
20260507055445 20 340 3.2 6.4 0.00 0.00 0.00 60 1020.0
20260507054943 19 335 4.8 6.4 0.00 0.00 0.00 61 1020.0
20260507054438 20 308 3.2 4.8 0.00 0.00 0.00 60 1020.1
20260507053936 19 11 3.2 6.4 0.00 0.00 0.00 61 1020.1
20260507053433 19 344 0.0 4.8 0.00 0.00 0.00 62 1019.9
20260507052932 18 321 4.8 9.7 0.00 0.00 0.00 62 1019.9
20260507052429 18 323 3.2 6.4 0.00 0.00 0.00 62 1019.9
20260507051926 18 325 1.6 6.4 0.00 0.00 0.00 62 1019.9
20260507051424 18 320 4.8 8.0 0.00 0.00 0.00 63 1020.0
20260507050920 18 313 1.6 6.4 0.00 0.00 0.00 65 1019.8
20260507050417 18 358 3.2 6.4 0.00 0.00 0.00 65 1019.7
20260507045914 18 318 4.8 4.8 0.00 0.00 0.00 66 1019.9
20260507045410 17 319 4.8 4.8 0.00 0.00 0.00 66 1020.0
20260507044903 18 290 0.0 3.2 0.00 0.00 0.00 66 1019.8
20260507044359 18 55 0.0 3.2 0.00 0.00 0.00 66 1020.1
20260507043855 17 319 3.2 3.2 0.00 0.00 0.00 68 1019.9
20260507043352 17 356 3.2 6.4 0.00 0.00 0.00 67 1019.8
20260507042848 16 74 3.2 6.4 0.00 0.00 0.00 69 1019.8
20260507042344 16 310 3.2 4.8 0.00 0.00 0.00 69 1019.7
20260507041841 16 309 1.6 6.4 0.00 0.00 0.00 70 1019.8
20260507041337 16 302 1.6 4.8 0.00 0.00 0.00 70 1019.7
20260507040835 16 0 1.6 4.8 0.00 0.00 0.00 69 1019.9
20260507040331 16 357 0.0 3.2 0.00 0.00 0.00 69 1019.6
20260507035827 16 313 3.2 3.2 0.00 0.00 0.00 70 1019.6
20260507035322 16 326 0.0 3.2 0.00 0.00 0.00 69 1019.6
20260507034820 16 352 3.2 4.8 0.00 0.00 0.00 69 1019.5
20260507034317 16 354 1.6 3.2 0.00 0.00 0.00 70 1019.3
20260507033815 15 6 0.0 3.2 0.00 0.00 0.00 72 1019.4
20260507033313 15 26 0.0 3.2 0.00 0.00 0.00 73 1019.2
20260507032809 15 314 1.6 3.2 0.00 0.00 0.00 76 1019.3
20260507032306 14 320 1.6 3.2 0.00 0.00 0.00 78 1019.4
20260507031802 13 312 1.6 3.2 0.00 0.00 0.00 81 1019.3
20260507031259 12 285 0.0 3.2 0.00 0.00 0.00 82 1019.2
20260507030755 12 311 1.6 3.2 0.00 0.00 0.00 82 1019.1
20260507030253 12 328 3.2 3.2 0.00 0.00 0.00 82 1018.9
20260507025750 12 325 3.2 3.2 0.00 0.00 0.00 82 1018.9
20260507025247 12 330 0.0 3.2 0.00 0.00 0.00 82 1018.9
20260507024745 12 318 3.2 3.2 0.00 0.00 0.00 81 1018.8
20260507024242 12 323 3.2 3.2 0.00 0.00 0.00 81 1018.6
20260507023738 12 299 3.2 3.2 0.00 0.00 0.00 81 1019.0
20260507023235 12 4 0.0 3.2 0.00 0.00 0.00 81 1018.9
20260507022732 12 321 1.6 3.2 0.00 0.00 0.00 82 1018.8
20260507022228 12 330 1.6 3.2 0.00 0.00 0.00 82 1018.7
20260507021724 12 289 1.6 3.2 0.00 0.00 0.00 82 1018.8
20260507021220 12 317 0.0 4.8 0.00 0.00 0.00 81 1018.9
20260507020719 12 308 1.6 3.2 0.00 0.00 0.00 81 1018.7
20260507020214 12 308 1.6 3.2 0.00 0.00 0.00 81 1018.7
20260507015712 12 334 1.6 3.2 0.00 0.00 0.00 81 1018.7
20260507015209 12 310 3.2 3.2 0.00 0.00 0.00 80 1018.6
20260507014706 13 292 3.2 3.2 0.00 0.00 0.00 80 1018.7
20260507014202 13 309 3.2 3.2 0.00 0.00 0.00 80 1018.8
20260507013659 13 306 0.0 3.2 0.00 0.00 0.00 80 1018.8
20260507013157 13 306 3.2 3.2 0.00 0.00 0.00 80 1018.8
20260507012654 13 231 0.0 3.2 0.00 0.00 0.00 79 1018.6
20260507012149 13 21 0.0 3.2 0.00 0.00 0.00 80 1018.6
20260507011647 13 359 0.0 3.2 0.00 0.00 0.00 80 1018.7
20260507011143 13 26 0.0 3.2 0.00 0.00 0.00 81 1018.7
20260507010638 12 9 1.6 3.2 0.00 0.00 0.00 81 1018.7
20260507010134 12 319 1.6 3.2 0.00 0.00 0.00 81 1018.6
20260507005632 12 316 3.2 3.2 0.00 0.00 0.00 81 1018.6
20260507005128 12 29 3.2 3.2 0.00 0.00 0.00 81 1018.8
20260507004625 12 335 3.2 3.2 0.00 0.00 0.00 81 1018.7
20260507004122 12 329 3.2 4.8 0.00 0.00 0.00 81 1018.8
20260507003618 12 330 1.6 3.2 0.00 0.00 0.00 81 1019.0
20260507003113 12 310 3.2 3.2 0.00 0.00 0.00 81 1018.8
20260507002610 12 332 1.6 4.8 0.00 0.00 0.00 81 1018.8
20260507002106 12 323 3.2 3.2 0.00 0.00 0.00 81 1018.8
20260507001603 12 323 3.2 3.2 0.00 0.00 0.00 81 1018.9
20260507001101 13 316 3.2 3.2 0.00 0.00 0.00 80 1018.9
20260507000556 13 294 1.6 3.2 0.00 0.00 0.00 80 1018.7
20260507000052 13 297 3.2 4.8 0.00 0.00 0.00 79 1018.8
20260506235549 13 323 4.8 4.8 0.00 0.00 0.00 79 1018.9
20260506235044 13 350 3.2 3.2 0.00 0.00 0.00 78 1018.8
20260506234542 13 305 3.2 3.2 0.00 0.00 0.00 78 1019.0
20260506234039 13 332 3.2 3.2 0.00 0.00 0.00 78 1018.9
20260506233536 13 11 0.0 3.2 0.00 0.00 0.00 78 1019.0
20260506233033 13 321 1.6 4.8 0.00 0.00 0.00 78 1019.0
20260506232529 13 343 3.2 3.2 0.00 0.00 0.00 78 1019.0
20260506232024 13 329 0.0 3.2 0.00 0.00 0.00 78 1018.9
20260506231522 14 314 3.2 3.2 0.00 0.00 0.00 77 1018.9
20260506231020 14 22 3.2 3.2 0.00 0.00 0.00 77 1019.0
20260506230516 14 339 3.2 4.8 0.00 0.00 0.00 76 1019.1
20260506230014 14 0 1.6 4.8 0.00 0.00 0.00 76 1019.0
20260506225510 14 292 1.6 3.2 0.00 0.00 0.00 77 1019.2
20260506225006 14 0 3.2 3.2 0.00 0.00 0.00 77 1019.0
20260506224503 14 16 3.2 3.2 0.00 0.00 0.00 77 1019.2
20260506224000 14 303 3.2 3.2 0.00 0.00 0.00 77 1019.0
20260506223456 14 346 3.2 3.2 0.00 0.00 0.00 76 1019.1
20260506222953 15 313 3.2 3.2 0.00 0.00 0.00 76 1019.1
20260506222449 15 358 1.6 4.8 0.00 0.00 0.00 76 1019.4
20260506221946 15 354 1.6 6.4 0.00 0.00 0.00 76 1019.2
20260506221443 14 28 1.6 3.2 0.00 0.00 0.00 77 1019.3
20260506220936 14 311 1.6 3.2 0.00 0.00 0.00 77 1019.4
20260506220431 15 309 0.0 3.2 0.00 0.00 0.00 76 1019.2
20260506215928 15 310 0.0 3.2 0.00 0.00 0.00 76 1019.4
20260506215424 15 340 1.6 3.2 0.00 0.00 0.00 76 1019.6
20260506214920 15 329 0.0 3.2 0.00 0.00 0.00 75 1019.5
20260506214417 15 302 1.6 3.2 0.00 0.00 0.00 75 1019.5
20260506213915 15 297 1.6 3.2 0.00 0.00 0.00 74 1019.6
20260506213412 15 353 1.6 3.2 0.00 0.00 0.00 74 1019.5
20260506212910 15 322 0.0 3.2 0.00 0.00 0.00 74 1019.5
20260506212405 15 322 0.0 3.2 0.00 0.00 0.00 74 1019.5
20260506211900 15 324 0.0 1.6 0.00 0.00 0.00 74 1019.7
20260506211356 15 10 1.6 3.2 0.00 0.00 0.00 74 1019.7
20260506210854 15 292 0.0 1.6 0.00 0.00 0.00 74 1019.7
20260506210350 15 315 0.0 3.2 0.00 0.00 0.00 75 1019.7
20260506205848 15 313 0.0 1.6 0.00 0.00 0.00 75 1019.7
20260506205344 15 269 0.0 1.6 0.00 0.00 0.00 75 1019.7
20260506204840 15 315 3.2 3.2 0.00 0.00 0.00 75 1020.0
20260506204338 15 314 1.6 3.2 0.00 0.00 0.00 75 1019.7
20260506203835 15 323 1.6 3.2 0.00 0.00 0.00 74 1019.9
20260506203332 15 309 0.0 3.2 0.00 0.00 0.00 74 1019.7
20260506202829 15 321 0.0 3.2 0.00 0.00 0.00 74 1019.7
20260506202326 15 314 1.6 3.2 0.00 0.00 0.00 73 1019.8
20260506201823 15 322 0.0 3.2 0.00 0.00 0.00 73 1019.9
20260506201320 15 322 3.2 3.2 0.00 0.00 0.00 73 1019.9
20260506200817 16 320 1.6 3.2 0.00 0.00 0.00 73 1019.9
20260506200313 16 304 1.6 3.2 0.00 0.00 0.00 73 1019.8
20260506195809 16 319 3.2 3.2 0.00 0.00 0.00 73 1019.9
20260506195306 16 307 3.2 3.2 0.00 0.00 0.00 73 1020.0
20260506194804 16 317 1.6 3.2 0.00 0.00 0.00 73 1019.7
20260506194300 16 294 1.6 3.2 0.00 0.00 0.00 72 1019.9
20260506193758 16 313 1.6 3.2 0.00 0.00 0.00 72 1019.8
20260506193254 16 300 1.6 3.2 0.00 0.00 0.00 73 1019.8
20260506192750 16 316 3.2 3.2 0.00 0.00 0.00 72 1019.7
20260506192248 16 306 1.6 3.2 0.00 0.00 0.00 72 1019.8
20260506191744 16 297 1.6 1.6 0.00 0.00 0.00 72 1019.8
20260506191240 16 294 1.6 1.6 0.00 0.00 0.00 72 1019.8
20260506190738 16 289 3.2 3.2 0.00 0.00 0.00 72 1019.9
20260506190234 16 289 1.6 3.2 0.00 0.00 0.00 72 1019.8
20260506185731 16 274 1.6 1.6 0.00 0.00 0.00 72 1019.9
20260506185228 16 295 1.6 3.2 0.00 0.00 0.00 72 1019.7
20260506184725 16 269 0.0 1.6 0.00 0.00 0.00 72 1019.8
20260506184222 16 290 1.6 3.2 0.00 0.00 0.00 72 1019.8
20260506183719 16 286 1.6 3.2 0.00 0.00 0.00 72 1019.8
20260506183215 16 299 0.0 3.2 0.00 0.00 0.00 72 1019.7
20260506182712 16 291 1.6 3.2 0.00 0.00 0.00 71 1019.6
20260506182209 16 285 1.6 3.2 0.00 0.00 0.00 71 1019.5
20260506181707 16 283 3.2 3.2 0.00 0.00 0.00 72 1019.6
20260506181204 16 293 1.6 3.2 0.00 0.00 0.00 72 1019.4
20260506180701 16 291 1.6 3.2 0.00 0.00 0.00 71 1019.4
20260506180157 16 300 1.6 4.8 0.00 0.00 0.00 71 1019.3
20260506175654 16 274 3.2 3.2 0.00 0.00 0.00 71 1019.2
20260506175150 16 294 3.2 4.8 0.00 0.00 0.00 71 1019.2
20260506174648 16 288 3.2 3.2 0.00 0.00 0.00 70 1019.3
20260506174144 16 274 0.0 4.8 0.00 0.00 0.00 70 1019.2
20260506173643 16 301 3.2 4.8 0.00 0.00 0.00 70 1019.3
20260506173134 16 303 0.0 3.2 0.00 0.00 0.00 70 1019.1
20260506172631 16 301 0.0 3.2 0.00 0.00 0.00 70 1019.1
20260506172127 16 278 1.6 4.8 0.00 0.00 0.00 70 1019.1
20260506171625 16 327 3.2 4.8 0.00 0.00 0.00 70 1019.0
20260506171122 16 302 3.2 3.2 0.00 0.00 0.00 70 1019.0
20260506170619 16 300 3.2 4.8 0.00 0.00 0.00 69 1019.1
20260506170116 17 291 1.6 3.2 0.00 0.00 0.00 69 1019.0
20260506165615 17 341 0.0 3.2 0.00 0.00 0.00 68 1019.0
20260506165111 17 298 0.0 4.8 0.00 0.00 0.00 68 1018.9
20260506164608 17 318 3.2 4.8 0.00 0.00 0.00 67 1018.7
20260506164106 17 274 3.2 4.8 0.00 0.00 0.00 67 1018.7
20260506163601 17 281 3.2 8.0 0.00 0.00 0.00 66 1018.7
20260506163057 17 324 1.6 6.4 0.00 0.00 0.00 66 1018.6
20260506162553 17 292 3.2 6.4 0.00 0.00 0.00 65 1018.7
20260506162045 17 320 3.2 6.4 0.00 0.00 0.00 64 1018.6